,,,PA_Meas_PMT16A,,PR_Meas_QMR101_102,,RH_Meas_QMH101,,SR_Meas_QMS101,,TA_Meas_QMH101,,GenWind,,GenWind,
date,time,status,PA,status,PR,status,RH,status,SR,status,TA,status,DirAvg,status,SpdAvg,
2009-01-20, 00:00:05,VALID,1004.25,VALID,0.5,VALID,94.3616,VALID,0,VALID,24.675,VALID,78,VALID,1.30938,
2009-01-20, 00:01:05,VALID,1004.29,VALID,0,VALID,94.3158,VALID,0.100563,VALID,24.6964,VALID,36,VALID,0.940234,
2009-01-20, 00:02:05,VALID,1004.25,VALID,0.5,VALID,94.2624,VALID,0,VALID,24.6769,VALID,22,VALID,1.60742,
2009-01-20, 00:03:05,VALID,1004.24,VALID,0,VALID,94.2701,VALID,0,VALID,24.6574,VALID,19,VALID,1.01484,
2009-01-20, 00:04:05,VALID,1004.24,VALID,0,VALID,94.3006,VALID,0,VALID,24.638,VALID,17,VALID,0.885938,
2009-01-20, 00:05:05,VALID,1004.22,VALID,0,VALID,94.3082,VALID,0,VALID,24.6185,VALID,33,VALID,0.908203,
2009-01-20, 00:06:05,VALID,1004.23,VALID,0,VALID,94.354,VALID,0.100563,VALID,24.5796,VALID,22,VALID,1.07148,
2009-01-20, 00:07:05,VALID,1004.21,VALID,0,VALID,94.3998,VALID,0,VALID,24.5796,VALID,9,VALID,0.739453,
2009-01-20, 00:08:05,VALID,1004.21,VALID,0,VALID,94.4303,VALID,0.100563,VALID,24.5601,VALID,32,VALID,0.630859,
2009-01-20, 00:09:05,VALID,1004.18,VALID,0,VALID,94.4227,VALID,0.100563,VALID,24.5601,VALID,33,VALID,0.709766,
2009-01-20, 00:10:05,VALID,1004.16,VALID,0,VALID,94.4684,VALID,0.100563,VALID,24.5406,VALID,25,VALID,1.10078,
2009-01-20, 00:11:05,VALID,1004.16,VALID,0,VALID,94.4761,VALID,0,VALID,24.5017,VALID,34,VALID,0.383594,
2009-01-20, 00:12:05,VALID,1004.12,VALID,0,VALID,94.5066,VALID,0,VALID,24.4804,VALID,23,VALID,0.621875,
2009-01-20, 00:13:05,VALID,1004.1,VALID,0,VALID,94.5218,VALID,0,VALID,24.4822,VALID,24,VALID,0.592578,
2009-01-20, 00:14:04,VALID,1004.09,VALID,0,VALID,94.5523,VALID,0,VALID,24.4628,VALID,47,VALID,0.748047,
2009-01-20, 00:15:04,VALID,1004.05,VALID,0,VALID,94.5829,VALID,0,VALID,24.4628,VALID,63,VALID,0.45625,
2009-01-20, 00:16:04,VALID,1004.06,VALID,0,VALID,94.5981,VALID,0.100563,VALID,24.4451,VALID,30,VALID,0.750391,
2009-01-20, 00:17:04,VALID,1004.03,VALID,0,VALID,94.6363,VALID,0,VALID,24.4238,VALID,56,VALID,0.423438,
2009-01-20, 00:18:04,VALID,1004.04,VALID,0,VALID,94.621,VALID,0,VALID,24.4043,VALID,27,VALID,1.20898,
2009-01-20, 00:19:04,VALID,1004.02,VALID,0.5,VALID,94.6439,VALID,0,VALID,24.3849,VALID,17,VALID,1.32734,
2009-01-20, 00:20:04,VALID,1004.01,VALID,0,VALID,94.6439,VALID,0,VALID,24.3654,VALID,19,VALID,0.817187,
2009-01-20, 00:21:04,VALID,1004.01,VALID,0,VALID,94.6591,VALID,0,VALID,24.3459,VALID,17,VALID,1.35273,
2009-01-20, 00:22:04,VALID,1003.99,VALID,0,VALID,94.6363,VALID,0,VALID,24.307,VALID,12,VALID,1.19922,
2009-01-20, 00:23:04,VALID,1003.98,VALID,0,VALID,94.6134,VALID,0,VALID,24.307,VALID,356,VALID,0.657422,
2009-01-20, 00:24:04,VALID,1003.98,VALID,0,VALID,94.6439,VALID,0.100563,VALID,24.307,VALID,29,VALID,0.620703,
2009-01-20, 00:25:04,VALID,1003.95,VALID,0,VALID,94.621,VALID,0.100563,VALID,24.2681,VALID,62,VALID,0.629687,
2009-01-20, 00:26:04,VALID,1003.91,VALID,0,VALID,94.621,VALID,0,VALID,24.2486,VALID,54,VALID,0.512109,
2009-01-20, 00:27:04,VALID,1003.88,VALID,0,VALID,94.6515,VALID,0,VALID,24.2291,VALID,347,VALID,0.754687,
2009-01-20, 00:28:04,VALID,1003.87,VALID,0,VALID,94.5676,VALID,0,VALID,24.2291,VALID,338,VALID,0.845312,
2009-01-20, 00:29:04,VALID,1003.87,VALID,0,VALID,94.5523,VALID,0.100563,VALID,24.2097,VALID,347,VALID,0.797266,
2009-01-20, 00:30:04,VALID,1003.85,VALID,0,VALID,94.5752,VALID,0,VALID,24.1902,VALID,1,VALID,0.855859,
2009-01-20, 00:31:04,VALID,1003.85,VALID,0,VALID,94.5295,VALID,0,VALID,24.1513,VALID,11,VALID,0.740625,
2009-01-20, 00:32:04,VALID,1003.87,VALID,0,VALID,94.5676,VALID,0.100563,VALID,24.13,VALID,345,VALID,0.428906,
2009-01-20, 00:33:04,VALID,1003.85,VALID,0,VALID,94.5752,VALID,0,VALID,24.1318,VALID,346,VALID,0.0378906,
2009-01-20, 00:34:04,VALID,1003.85,VALID,0,VALID,94.6286,VALID,0,VALID,24.1336,VALID,346,VALID,0,
2009-01-20, 00:35:04,VALID,1003.83,VALID,0,VALID,94.6439,VALID,0,VALID,24.1123,VALID,346,VALID,0,
2009-01-20, 00:36:04,VALID,1003.84,VALID,0,VALID,94.6668,VALID,0,VALID,24.0929,VALID,311,VALID,0.0222656,
2009-01-20, 00:37:04,VALID,1003.83,VALID,0,VALID,94.6973,VALID,0,VALID,24.091,VALID,245,VALID,0.23125,
2009-01-20, 00:38:04,VALID,1003.81,VALID,0,VALID,94.6591,VALID,0,VALID,24.0947,VALID,246,VALID,0.439844,
2009-01-20, 00:39:04,VALID,1003.84,VALID,0,VALID,94.6744,VALID,0,VALID,24.0539,VALID,246,VALID,0.176172,
2009-01-20, 00:40:04,VALID,1003.84,VALID,0,VALID,94.7049,VALID,0,VALID,24.0345,VALID,246,VALID,0.245703,
2009-01-20, 00:41:04,VALID,1003.86,VALID,0,VALID,94.7049,VALID,0,VALID,24.0345,VALID,246,VALID,0.460938,
2009-01-20, 00:42:04,VALID,1003.88,VALID,0,VALID,94.7278,VALID,0,VALID,24.015,VALID,246,VALID,0.306641,
2009-01-20, 00:43:04,VALID,1003.88,VALID,0,VALID,94.7431,VALID,0,VALID,24.0345,VALID,327,VALID,0.214062,
2009-01-20, 00:44:04,VALID,1003.89,VALID,0,VALID,94.7431,VALID,0,VALID,24.015,VALID,327,VALID,0.140234,
2009-01-20, 00:45:04,VALID,1003.86,VALID,0,VALID,94.7507,VALID,0,VALID,24.015,VALID,327,VALID,0.153906,
2009-01-20, 00:46:04,VALID,1003.83,VALID,0,VALID,94.7583,VALID,0,VALID,23.9937,VALID,327,VALID,0,
2009-01-20, 00:47:04,VALID,1003.79,VALID,0,VALID,94.7812,VALID,0,VALID,23.9955,VALID,346,VALID,0.321094,
2009-01-20, 00:48:04,VALID,1003.79,VALID,0,VALID,94.7736,VALID,0,VALID,23.9548,VALID,330,VALID,0.923047,
2009-01-20, 00:49:04,VALID,1003.77,VALID,0,VALID,94.7888,VALID,0,VALID,23.9566,VALID,360,VALID,0.335156,
2009-01-20, 00:50:04,VALID,1003.74,VALID,0,VALID,94.8117,VALID,0,VALID,23.9353,VALID,356,VALID,0.630469,
2009-01-20, 00:51:04,VALID,1003.75,VALID,0,VALID,94.827,VALID,0,VALID,23.9566,VALID,350,VALID,1.05977,
2009-01-20, 00:52:04,VALID,1003.72,VALID,0,VALID,94.8575,VALID,0,VALID,23.9371,VALID,347,VALID,0.472656,
2009-01-20, 00:53:04,VALID,1003.72,VALID,0,VALID,94.8651,VALID,0,VALID,23.9371,VALID,342,VALID,0.821484,
2009-01-20, 00:54:04,VALID,1003.73,VALID,0,VALID,94.8346,VALID,0,VALID,23.8982,VALID,343,VALID,0.478125,
2009-01-20, 00:55:04,VALID,1003.7,VALID,0,VALID,94.8575,VALID,0,VALID,23.8964,VALID,343,VALID,0.412109,
2009-01-20, 00:56:04,VALID,1003.71,VALID,0,VALID,94.8651,VALID,0,VALID,23.8982,VALID,4,VALID,0.620703,
2009-01-20, 00:57:04,VALID,1003.7,VALID,0,VALID,94.888,VALID,0.100563,VALID,23.9177,VALID,3,VALID,0.223047,
2009-01-20, 00:58:04,VALID,1003.68,VALID,0,VALID,94.8956,VALID,0,VALID,23.8787,VALID,14,VALID,0.275,
2009-01-20, 00:59:04,VALID,1003.64,VALID,0,VALID,94.9185,VALID,0.100563,VALID,23.9177,VALID,14,VALID,0.00507812,
2009-01-20, 01:00:04,VALID,1003.65,VALID,0,VALID,94.9262,VALID,0,VALID,23.8982,VALID,330,VALID,0.44375,
2009-01-20, 01:01:04,VALID,1003.6,VALID,0,VALID,94.949,VALID,0.100563,VALID,23.8769,VALID,15,VALID,0.446875,
2009-01-20, 01:02:04,VALID,1003.56,VALID,0,VALID,94.9262,VALID,0,VALID,23.8787,VALID,355,VALID,0.582422,
2009-01-20, 01:03:04,VALID,1003.56,VALID,0,VALID,94.888,VALID,0,VALID,23.8593,VALID,16,VALID,0.469922,
2009-01-20, 01:04:04,VALID,1003.52,VALID,0,VALID,94.888,VALID,0.100563,VALID,23.8398,VALID,350,VALID,1.13555,
2009-01-20, 01:05:04,VALID,1003.45,VALID,0,VALID,94.8651,VALID,0.100563,VALID,23.8203,VALID,325,VALID,0.817969,
2009-01-20, 01:06:04,VALID,1003.45,VALID,0,VALID,94.827,VALID,0.100563,VALID,23.8203,VALID,351,VALID,1.00352,
2009-01-20, 01:07:04,VALID,1003.42,VALID,0,VALID,94.8575,VALID,0.100563,VALID,23.8009,VALID,5,VALID,0.698438,
2009-01-20, 01:08:04,VALID,1003.4,VALID,0,VALID,94.8117,VALID,0,VALID,23.7814,VALID,355,VALID,0.772266,
2009-01-20, 01:09:04,VALID,1003.39,VALID,0,VALID,94.8499,VALID,0,VALID,23.7814,VALID,12,VALID,0.667188,
2009-01-20, 01:10:04,VALID,1003.37,VALID,0,VALID,94.8575,VALID,0,VALID,23.7814,VALID,12,VALID,0.336328,
2009-01-20, 01:11:04,VALID,1003.34,VALID,0,VALID,94.9109,VALID,0,VALID,23.8203,VALID,72,VALID,0.497266,
2009-01-20, 01:12:04,VALID,1003.33,VALID,0,VALID,94.9567,VALID,0.100563,VALID,23.8398,VALID,69,VALID,0.376953,
2009-01-20, 01:13:04,VALID,1003.3,VALID,0,VALID,94.9719,VALID,0,VALID,23.838,VALID,6,VALID,0.566016,
2009-01-20, 01:14:04,VALID,1003.31,VALID,0,VALID,94.9338,VALID,0,VALID,23.8398,VALID,358,VALID,0.617188,
2009-01-20, 01:15:04,VALID,1003.27,VALID,0,VALID,94.9643,VALID,0,VALID,23.8787,VALID,8,VALID,0.712891,
2009-01-20, 01:16:04,VALID,1003.28,VALID,0,VALID,94.9414,VALID,0.100563,VALID,23.8593,VALID,36,VALID,0.591406,
2009-01-20, 01:17:04,VALID,1003.3,VALID,0,VALID,94.9948,VALID,0,VALID,23.8575,VALID,74,VALID,0.500391,
2009-01-20, 01:18:04,VALID,1003.3,VALID,0,VALID,94.9948,VALID,0,VALID,23.8982,VALID,75,VALID,0.267578,
2009-01-20, 01:19:04,VALID,1003.23,VALID,0,VALID,94.9185,VALID,0,VALID,23.8982,VALID,347,VALID,1.0418,
2009-01-20, 01:20:04,VALID,1003.26,VALID,0,VALID,94.766,VALID,0,VALID,23.8009,VALID,25,VALID,1.08359,
2009-01-20, 01:21:04,VALID,1003.2,VALID,0,VALID,94.6668,VALID,0,VALID,23.7619,VALID,3,VALID,0.890234,
2009-01-20, 01:22:04,VALID,1003.16,VALID,0,VALID,94.621,VALID,0,VALID,23.7425,VALID,346,VALID,0.958984,
2009-01-20, 01:23:04,VALID,1003.2,VALID,0,VALID,94.6439,VALID,0,VALID,23.723,VALID,23,VALID,1.11016,
2009-01-20, 01:24:04,VALID,1003.19,VALID,0,VALID,94.5829,VALID,0,VALID,23.723,VALID,31,VALID,1.22344,
2009-01-20, 01:25:04,VALID,1003.21,VALID,0,VALID,94.5066,VALID,0,VALID,23.7017,VALID,47,VALID,0.934375,
2009-01-20, 01:26:04,VALID,1003.22,VALID,0,VALID,94.4455,VALID,0,VALID,23.7425,VALID,3,VALID,1.0082,
2009-01-20, 01:27:04,VALID,1003.24,VALID,0,VALID,94.3158,VALID,0,VALID,23.7035,VALID,352,VALID,0.871094,
2009-01-20, 01:28:04,VALID,1003.24,VALID,0,VALID,94.2243,VALID,0,VALID,23.723,VALID,39,VALID,1.275,
2009-01-20, 01:29:04,VALID,1003.29,VALID,0,VALID,94.2472,VALID,0.100563,VALID,23.7212,VALID,42,VALID,0.489062,
2009-01-20, 01:30:04,VALID,1003.3,VALID,0,VALID,94.1785,VALID,0,VALID,23.723,VALID,3,VALID,1.00625,
2009-01-20, 01:31:04,VALID,1003.3,VALID,0,VALID,94.0946,VALID,0,VALID,23.7017,VALID,358,VALID,1.2043,
2009-01-20, 01:32:04,VALID,1003.35,VALID,0,VALID,94.0183,VALID,0,VALID,23.7637,VALID,347,VALID,1.23789,
2009-01-20, 01:33:04,VALID,1003.38,VALID,0,VALID,94.2777,VALID,0,VALID,23.8009,VALID,7,VALID,1.17852,
2009-01-20, 01:34:04,VALID,1003.42,VALID,0,VALID,94.3311,VALID,0,VALID,23.8398,VALID,349,VALID,0.980469,
2009-01-20, 01:35:04,VALID,1003.44,VALID,0,VALID,94.2396,VALID,0,VALID,23.8593,VALID,354,VALID,0.890625,
2009-01-20, 01:36:04,VALID,1003.45,VALID,0,VALID,94.209,VALID,0,VALID,23.8575,VALID,26,VALID,0.559375,
2009-01-20, 01:37:04,VALID,1003.4,VALID,0,VALID,94.1251,VALID,0,VALID,23.8787,VALID,312,VALID,0.760156,
2009-01-20, 01:38:04,VALID,1003.37,VALID,0,VALID,94.1099,VALID,0,VALID,23.8982,VALID,351,VALID,1.39297,
2009-01-20, 01:39:04,VALID,1003.34,VALID,0,VALID,94.0641,VALID,0,VALID,23.9566,VALID,356,VALID,1.40625,
2009-01-20, 01:40:04,VALID,1003.29,VALID,0,VALID,94.0031,VALID,0,VALID,23.9955,VALID,360,VALID,1.27383,
2009-01-20, 01:41:04,VALID,1003.21,VALID,0,VALID,93.9802,VALID,0,VALID,24.0539,VALID,347,VALID,1.24727,
2009-01-20, 01:42:04,VALID,1003.19,VALID,0,VALID,93.7437,VALID,0,VALID,24.0929,VALID,344,VALID,1.83359,
2009-01-20, 01:43:04,VALID,1003.14,VALID,0,VALID,93.5072,VALID,0,VALID,24.1513,VALID,349,VALID,1.3457,
2009-01-20, 01:44:04,VALID,1003.18,VALID,0,VALID,93.3165,VALID,0,VALID,24.1707,VALID,353,VALID,1.80742,
2009-01-20, 01:45:04,VALID,1003.15,VALID,0,VALID,93.2554,VALID,0,VALID,24.2291,VALID,350,VALID,1.51641,
2009-01-20, 01:46:04,VALID,1003.2,VALID,0,VALID,93.2173,VALID,0.100563,VALID,24.2894,VALID,40,VALID,0.74375,
2009-01-20, 01:47:04,VALID,1003.2,VALID,0,VALID,93.1486,VALID,0,VALID,24.2486,VALID,21,VALID,0.469141,
2009-01-20, 01:48:04,VALID,1003.24,VALID,0,VALID,93.1105,VALID,0,VALID,24.1902,VALID,82,VALID,1.36758,
2009-01-20, 01:49:04,VALID,1003.23,VALID,0,VALID,93.2097,VALID,0,VALID,24.2097,VALID,57,VALID,0.592578,
2009-01-20, 01:50:04,VALID,1003.24,VALID,0,VALID,93.2173,VALID,0,VALID,24.2097,VALID,18,VALID,0.664844,
2009-01-20, 01:51:04,VALID,1003.21,VALID,0,VALID,93.1868,VALID,0,VALID,24.1689,VALID,357,VALID,1.58711,
2009-01-20, 01:52:04,VALID,1003.19,VALID,0,VALID,93.1029,VALID,0,VALID,24.2097,VALID,317,VALID,1.16836,
2009-01-20, 01:53:04,VALID,1003.15,VALID,0,VALID,93.1029,VALID,0,VALID,24.2078,VALID,353,VALID,1.06406,
2009-01-20, 01:54:04,VALID,1003.15,VALID,0,VALID,93.0952,VALID,0,VALID,24.2486,VALID,334,VALID,1.35938,
2009-01-20, 01:55:04,VALID,1003.11,VALID,0,VALID,93.0418,VALID,0,VALID,24.2681,VALID,348,VALID,0.975781,
2009-01-20, 01:56:04,VALID,1003.1,VALID,0,VALID,92.9961,VALID,0,VALID,24.2875,VALID,339,VALID,0.692969,
2009-01-20, 01:57:04,VALID,1003.07,VALID,0,VALID,92.9961,VALID,0,VALID,24.2681,VALID,3,VALID,0.653516,
2009-01-20, 01:58:04,VALID,1003.08,VALID,0,VALID,93.0266,VALID,0,VALID,24.2875,VALID,338,VALID,0.706641,
2009-01-20, 01:59:04,VALID,1003.06,VALID,0,VALID,93.08,VALID,0,VALID,24.2681,VALID,355,VALID,0.964844,
2009-01-20, 02:00:04,VALID,1003.06,VALID,0,VALID,93.1181,VALID,0.100563,VALID,24.2662,VALID,353,VALID,0.7125,
2009-01-20, 02:01:04,VALID,1003.04,VALID,0,VALID,93.141,VALID,0,VALID,24.2875,VALID,2,VALID,0.838672,
2009-01-20, 02:02:04,VALID,1003.02,VALID,0,VALID,93.1944,VALID,0.100563,VALID,24.2875,VALID,357,VALID,0.814062,
2009-01-20, 02:03:04,VALID,1003.04,VALID,0,VALID,93.2249,VALID,0,VALID,24.307,VALID,10,VALID,0.526563,
2009-01-20, 02:04:04,VALID,1003.03,VALID,0,VALID,93.2249,VALID,0.100563,VALID,24.3052,VALID,356,VALID,0.556641,
2009-01-20, 02:05:04,VALID,1003,VALID,0,VALID,93.2173,VALID,0,VALID,24.2857,VALID,6,VALID,0.546094,
2009-01-20, 02:06:04,VALID,1003.01,VALID,0,VALID,93.2249,VALID,0,VALID,24.307,VALID,29,VALID,1.27461,
2009-01-20, 02:07:04,VALID,1002.98,VALID,0,VALID,93.1486,VALID,0,VALID,24.3459,VALID,22,VALID,0.848828,
2009-01-20, 02:08:04,VALID,1002.98,VALID,0,VALID,93.0876,VALID,0,VALID,24.3654,VALID,4,VALID,0.392969,
2009-01-20, 02:09:04,VALID,1002.96,VALID,0,VALID,92.9655,VALID,0.100563,VALID,24.3636,VALID,347,VALID,1.13516,
2009-01-20, 02:10:04,VALID,1002.93,VALID,0,VALID,92.9045,VALID,0,VALID,24.4025,VALID,354,VALID,0.798437,
2009-01-20, 02:11:04,VALID,1002.93,VALID,0,VALID,92.7824,VALID,0,VALID,24.4025,VALID,351,VALID,0.889063,
2009-01-20, 02:12:04,VALID,1002.91,VALID,0,VALID,92.7062,VALID,0.100563,VALID,24.4433,VALID,347,VALID,0.86875,
2009-01-20, 02:13:04,VALID,1002.88,VALID,0,VALID,92.6756,VALID,0,VALID,24.4609,VALID,27,VALID,0.716406,
2009-01-20, 02:14:04,VALID,1002.88,VALID,0,VALID,92.5536,VALID,0,VALID,24.4609,VALID,46,VALID,0.659375,
2009-01-20, 02:15:04,VALID,1002.88,VALID,0,VALID,92.5078,VALID,0,VALID,24.5017,VALID,360,VALID,0.710547,
2009-01-20, 02:16:04,VALID,1002.88,VALID,0,VALID,92.5002,VALID,0,VALID,24.5017,VALID,9,VALID,0.655078,
2009-01-20, 02:17:04,VALID,1002.91,VALID,0,VALID,92.4468,VALID,0,VALID,24.4822,VALID,27,VALID,0.896484,
2009-01-20, 02:18:04,VALID,1002.95,VALID,0,VALID,92.5688,VALID,0,VALID,24.4433,VALID,347,VALID,0.574219,
2009-01-20, 02:19:04,VALID,1002.94,VALID,0,VALID,92.6451,VALID,0,VALID,24.4025,VALID,10,VALID,0.385547,
2009-01-20, 02:20:04,VALID,1003,VALID,0,VALID,92.668,VALID,0,VALID,24.4238,VALID,30,VALID,0.534375,
2009-01-20, 02:21:04,VALID,1003.03,VALID,0,VALID,92.6909,VALID,0,VALID,24.3636,VALID,41,VALID,0.771094,
2009-01-20, 02:22:04,VALID,1003.04,VALID,0,VALID,92.7977,VALID,0,VALID,24.3849,VALID,36,VALID,0.569531,
2009-01-20, 02:23:04,VALID,1003.1,VALID,0,VALID,92.8435,VALID,0,VALID,24.4043,VALID,35,VALID,0.519922,
2009-01-20, 02:24:04,VALID,1003.09,VALID,0,VALID,92.813,VALID,0,VALID,24.4238,VALID,41,VALID,0.817578,
2009-01-20, 02:25:04,VALID,1003.15,VALID,0,VALID,92.7901,VALID,0,VALID,24.4628,VALID,45,VALID,0.49375,
2009-01-20, 02:26:04,VALID,1003.18,VALID,0,VALID,92.7062,VALID,0,VALID,24.4822,VALID,26,VALID,0.703906,
2009-01-20, 02:27:04,VALID,1003.19,VALID,0,VALID,92.668,VALID,0,VALID,24.4822,VALID,56,VALID,0.462109,
2009-01-20, 02:28:04,VALID,1003.21,VALID,0,VALID,92.5917,VALID,0,VALID,24.4609,VALID,359,VALID,1.10742,
2009-01-20, 02:29:04,VALID,1003.24,VALID,0,VALID,92.5917,VALID,0,VALID,24.4998,VALID,15,VALID,0.646094,
2009-01-20, 02:30:04,VALID,1003.3,VALID,0,VALID,92.546,VALID,0.100563,VALID,24.5212,VALID,23,VALID,0.720312,
2009-01-20, 02:31:04,VALID,1003.31,VALID,0,VALID,92.4773,VALID,0,VALID,24.5017,VALID,357,VALID,0.973828,
2009-01-20, 02:32:04,VALID,1003.33,VALID,0,VALID,92.0501,VALID,0,VALID,24.5406,VALID,358,VALID,1.37891,
2009-01-20, 02:33:04,VALID,1003.36,VALID,0,VALID,91.5923,VALID,0,VALID,24.5388,VALID,352,VALID,2.00508,
2009-01-20, 02:34:04,VALID,1003.36,VALID,0,VALID,91.2872,VALID,0,VALID,24.5582,VALID,8,VALID,1.9832,
2009-01-20, 02:35:04,VALID,1003.42,VALID,0,VALID,90.921,VALID,0,VALID,24.5777,VALID,2,VALID,2.01094,
2009-01-20, 02:36:04,VALID,1003.4,VALID,0,VALID,90.9515,VALID,0,VALID,24.5796,VALID,20,VALID,2.34453,
2009-01-20, 02:37:04,VALID,1003.41,VALID,0,VALID,91.0736,VALID,0,VALID,24.5796,VALID,21,VALID,1.44336,
2009-01-20, 02:38:04,VALID,1003.38,VALID,0,VALID,91.3482,VALID,0,VALID,24.5388,VALID,4,VALID,1.25625,
2009-01-20, 02:39:04,VALID,1003.38,VALID,0,VALID,91.3864,VALID,0,VALID,24.5212,VALID,17,VALID,1.4168,
2009-01-20, 02:40:04,VALID,1003.35,VALID,0,VALID,91.4092,VALID,0,VALID,24.5406,VALID,29,VALID,3.21953,
2009-01-20, 02:41:04,VALID,1003.36,VALID,0,VALID,91.4474,VALID,0,VALID,24.562,VALID,18,VALID,2.4668,
2009-01-20, 02:42:04,VALID,1003.37,VALID,0,VALID,91.5389,VALID,0,VALID,24.5406,VALID,6,VALID,2.10547,
2009-01-20, 02:43:04,VALID,1003.38,VALID,0,VALID,91.5618,VALID,0,VALID,24.5406,VALID,34,VALID,1.98711,
2009-01-20, 02:44:04,VALID,1003.37,VALID,0,VALID,91.6152,VALID,0,VALID,24.5212,VALID,360,VALID,2.49453,
2009-01-20, 02:45:04,VALID,1003.34,VALID,0,VALID,91.6534,VALID,0,VALID,24.5406,VALID,359,VALID,1.04414,
2009-01-20, 02:46:04,VALID,1003.32,VALID,0,VALID,91.6534,VALID,0,VALID,24.5425,VALID,10,VALID,2.15664,
2009-01-20, 02:47:04,VALID,1003.29,VALID,0,VALID,91.6,VALID,0,VALID,24.5212,VALID,351,VALID,2.2418,
2009-01-20, 02:48:04,VALID,1003.29,VALID,0,VALID,91.6305,VALID,0,VALID,24.5212,VALID,358,VALID,1.67109,
2009-01-20, 02:49:04,VALID,1003.26,VALID,0,VALID,91.6686,VALID,0,VALID,24.5212,VALID,7,VALID,2.30195,
2009-01-20, 02:50:04,VALID,1003.2,VALID,0,VALID,91.6305,VALID,0,VALID,24.5212,VALID,6,VALID,2.10625,
2009-01-20, 02:51:04,VALID,1003.2,VALID,0,VALID,91.6534,VALID,0,VALID,24.5406,VALID,3,VALID,1.98906,
2009-01-20, 02:52:04,VALID,1003.15,VALID,0,VALID,91.6152,VALID,0,VALID,24.5796,VALID,350,VALID,1.11484,
2009-01-20, 02:53:04,VALID,1003.11,VALID,0,VALID,91.5008,VALID,0,VALID,24.5601,VALID,358,VALID,2.06016,
2009-01-20, 02:54:04,VALID,1003.11,VALID,0,VALID,91.4245,VALID,0,VALID,24.5582,VALID,354,VALID,1.71094,
2009-01-20, 02:55:04,VALID,1003.11,VALID,0,VALID,91.4092,VALID,0,VALID,24.5796,VALID,20,VALID,1.3668,
2009-01-20, 02:56:04,VALID,1003.1,VALID,0,VALID,91.4398,VALID,0,VALID,24.6009,VALID,15,VALID,1.40195,
2009-01-20, 02:57:04,VALID,1003.08,VALID,0,VALID,91.455,VALID,0,VALID,24.6185,VALID,1,VALID,1.57227,
2009-01-20, 02:58:04,VALID,1003.05,VALID,0,VALID,91.4474,VALID,0,VALID,24.6204,VALID,1,VALID,1.52578,
2009-01-20, 02:59:04,VALID,1003.04,VALID,0,VALID,91.4321,VALID,0,VALID,24.5796,VALID,358,VALID,2.17383,
2009-01-20, 03:00:04,VALID,1003.06,VALID,0,VALID,91.4779,VALID,0,VALID,24.5814,VALID,26,VALID,2.67109,
2009-01-20, 03:01:04,VALID,1003.11,VALID,0,VALID,91.5542,VALID,0,VALID,24.6204,VALID,4,VALID,1.04336,
2009-01-20, 03:02:04,VALID,1003.11,VALID,0,VALID,91.5389,VALID,0,VALID,24.5814,VALID,354,VALID,1.50352,
2009-01-20, 03:03:04,VALID,1003.11,VALID,0,VALID,91.5771,VALID,0,VALID,24.5406,VALID,360,VALID,1.32539,
2009-01-20, 03:04:04,VALID,1003.09,VALID,0,VALID,91.6763,VALID,0,VALID,24.5406,VALID,13,VALID,2.17617,
2009-01-20, 03:05:04,VALID,1003.13,VALID,0,VALID,91.7678,VALID,0,VALID,24.562,VALID,5,VALID,2.0332,
2009-01-20, 03:06:04,VALID,1003.13,VALID,0,VALID,91.7525,VALID,0,VALID,24.5212,VALID,17,VALID,2.1668,
2009-01-20, 03:07:04,VALID,1003.19,VALID,0,VALID,91.8059,VALID,0,VALID,24.5017,VALID,357,VALID,1.3293,
2009-01-20, 03:08:04,VALID,1003.19,VALID,0,VALID,91.8594,VALID,0,VALID,24.4822,VALID,9,VALID,2.30898,
2009-01-20, 03:09:04,VALID,1003.21,VALID,0,VALID,91.8899,VALID,0,VALID,24.5017,VALID,1,VALID,1.99258,
2009-01-20, 03:10:04,VALID,1003.19,VALID,0,VALID,91.9585,VALID,0,VALID,24.4609,VALID,21,VALID,2.59102,
2009-01-20, 03:11:04,VALID,1003.26,VALID,0,VALID,92.0196,VALID,0,VALID,24.4628,VALID,8,VALID,2.18672,
2009-01-20, 03:12:04,VALID,1003.25,VALID,0,VALID,92.0577,VALID,0,VALID,24.4414,VALID,352,VALID,1.6668,
2009-01-20, 03:13:04,VALID,1003.27,VALID,0,VALID,92.0577,VALID,0,VALID,24.4433,VALID,349,VALID,1.62812,
2009-01-20, 03:14:04,VALID,1003.25,VALID,0,VALID,92.1035,VALID,0,VALID,24.4433,VALID,347,VALID,1.84219,
2009-01-20, 03:15:04,VALID,1003.27,VALID,0,VALID,92.1874,VALID,0,VALID,24.4433,VALID,17,VALID,1.44492,
2009-01-20, 03:16:04,VALID,1003.27,VALID,0,VALID,92.2637,VALID,0,VALID,24.4043,VALID,357,VALID,1.53281,
2009-01-20, 03:17:04,VALID,1003.27,VALID,0,VALID,92.34,VALID,0,VALID,24.4043,VALID,356,VALID,1.56836,
2009-01-20, 03:18:04,VALID,1003.25,VALID,0,VALID,92.3857,VALID,0,VALID,24.3636,VALID,354,VALID,1.55781,
2009-01-20, 03:19:04,VALID,1003.21,VALID,0,VALID,92.4391,VALID,0,VALID,24.3849,VALID,354,VALID,1.28164,
2009-01-20, 03:20:04,VALID,1003.23,VALID,0,VALID,92.4925,VALID,0,VALID,24.3636,VALID,13,VALID,1.89922,
2009-01-20, 03:21:04,VALID,1003.23,VALID,0,VALID,92.5612,VALID,0,VALID,24.3867,VALID,360,VALID,1.4457,
2009-01-20, 03:22:04,VALID,1003.18,VALID,0,VALID,92.5917,VALID,0,VALID,24.3459,VALID,349,VALID,1.23828,
2009-01-20, 03:23:04,VALID,1003.17,VALID,0,VALID,92.6299,VALID,0,VALID,24.3265,VALID,358,VALID,1.84297,
2009-01-20, 03:24:04,VALID,1003.17,VALID,0,VALID,92.6833,VALID,0,VALID,24.3265,VALID,351,VALID,1.13359,
2009-01-20, 03:25:04,VALID,1003.13,VALID,0,VALID,92.7062,VALID,0,VALID,24.3265,VALID,2,VALID,1.8418,
2009-01-20, 03:26:04,VALID,1003.09,VALID,0,VALID,92.7214,VALID,0,VALID,24.3265,VALID,342,VALID,1.54688,
2009-01-20, 03:27:04,VALID,1003.07,VALID,0,VALID,92.7367,VALID,0,VALID,24.3265,VALID,354,VALID,2.30742,
2009-01-20, 03:28:04,VALID,1003.08,VALID,0,VALID,92.7901,VALID,0,VALID,24.3265,VALID,353,VALID,1.53203,
2009-01-20, 03:29:04,VALID,1003.03,VALID,0,VALID,92.7977,VALID,0,VALID,24.2875,VALID,353,VALID,1.57109,
2009-01-20, 03:30:04,VALID,1003.02,VALID,0,VALID,92.8892,VALID,0,VALID,24.3265,VALID,358,VALID,1.25195,
2009-01-20, 03:31:04,VALID,1003.04,VALID,0,VALID,92.9045,VALID,0,VALID,24.2875,VALID,351,VALID,1.54375,
2009-01-20, 03:32:04,VALID,1003,VALID,0,VALID,92.935,VALID,0.100563,VALID,24.2875,VALID,354,VALID,1.38047,
2009-01-20, 03:33:04,VALID,1002.98,VALID,0,VALID,92.935,VALID,0,VALID,24.2662,VALID,347,VALID,1.10977,
2009-01-20, 03:34:04,VALID,1003.02,VALID,0,VALID,92.9579,VALID,0,VALID,24.2875,VALID,347,VALID,1.08164,
2009-01-20, 03:35:04,VALID,1003.07,VALID,0,VALID,92.9579,VALID,0,VALID,24.2875,VALID,4,VALID,1.96602,
2009-01-20, 03:36:04,VALID,1003.07,VALID,0,VALID,92.9503,VALID,0,VALID,24.2875,VALID,353,VALID,1.79141,
2009-01-20, 03:37:04,VALID,1003.08,VALID,0,VALID,92.9808,VALID,0,VALID,24.2875,VALID,7,VALID,1.98672,
2009-01-20, 03:38:04,VALID,1003.1,VALID,0,VALID,93.0037,VALID,0,VALID,24.2662,VALID,9,VALID,2.27695,
2009-01-20, 03:39:04,VALID,1003.12,VALID,0,VALID,93.0418,VALID,0,VALID,24.2662,VALID,353,VALID,1.16484,
2009-01-20, 03:40:04,VALID,1003.13,VALID,0,VALID,93.1029,VALID,0,VALID,24.2681,VALID,11,VALID,1.09102,
2009-01-20, 03:41:04,VALID,1003.17,VALID,0,VALID,93.202,VALID,0,VALID,24.2681,VALID,351,VALID,0.944141,
2009-01-20, 03:42:04,VALID,1003.21,VALID,0,VALID,93.2402,VALID,0,VALID,24.2273,VALID,26,VALID,0.867578,
2009-01-20, 03:43:04,VALID,1003.27,VALID,0,VALID,93.2936,VALID,0,VALID,24.2078,VALID,353,VALID,1.76211,
2009-01-20, 03:44:04,VALID,1003.25,VALID,0,VALID,93.3317,VALID,0,VALID,24.2291,VALID,8,VALID,1.68711,
2009-01-20, 03:45:04,VALID,1003.26,VALID,0,VALID,93.3622,VALID,0,VALID,24.2078,VALID,355,VALID,1.71992,